RYR3155 LIRF-LFML

Flight info

Callsign RYR3155
Flight time N/A
Altitude 30000
Route PODOX DCT BEGUD DCT MIRSA DCT OMARD DCT STP/N0358F180 A3 RUBIT G7 LANKO
Aircraft MD82/M-SDFGIRWY/C

Departure

Time 2026-05-08 08:28
Airport Rome–Fiumicino Leonardo da Vinci International Airport (LIRF)

Arrival

Time N/A
Airport Marseille Provence Airport (LFML)
Time Latitude Longitude Altitude Speed Heading
2026-05-08 07:56 41.79692 12.24593 12 ft 0 kts 70°
2026-05-08 08:14 41.79690 12.24579 12 ft 2 kts 91°
2026-05-08 08:15 41.79691 12.24559 12 ft 2 kts 90°
2026-05-08 08:15 41.79690 12.24540 12 ft 2 kts 85°
2026-05-08 08:15 41.79689 12.24519 12 ft 2 kts 87°
2026-05-08 08:15 41.79689 12.24507 12 ft 1 kts 86°
2026-05-08 08:16 41.79685 12.24498 12 ft 1 kts 21°
2026-05-08 08:16 41.79678 12.24497 12 ft 0 kts 342°
2026-05-08 08:16 41.79673 12.24499 12 ft 0 kts 340°
2026-05-08 08:19 41.79675 12.24498 12 ft 1 kts 340°
2026-05-08 08:19 41.79700 12.24486 12 ft 5 kts 340°
2026-05-08 08:19 41.79752 12.24461 12 ft 9 kts 340°
2026-05-08 08:19 41.79829 12.24424 12 ft 13 kts 341°
2026-05-08 08:20 41.79912 12.24388 12 ft 11 kts 342°
2026-05-08 08:20 41.79978 12.24423 12 ft 10 kts 59°
2026-05-08 08:20 41.80005 12.24512 12 ft 10 kts 68°
2026-05-08 08:20 41.80030 12.24596 12 ft 9 kts 69°
2026-05-08 08:21 41.80053 12.24672 12 ft 8 kts 69°
2026-05-08 08:21 41.80073 12.24741 12 ft 7 kts 55°
2026-05-08 08:21 41.80117 12.24771 12 ft 7 kts
2026-05-08 08:21 41.80161 12.24784 12 ft 6 kts 27°
2026-05-08 08:22 41.80189 12.24823 12 ft 5 kts 63°
2026-05-08 08:22 41.80199 12.24878 12 ft 6 kts 82°
2026-05-08 08:22 41.80205 12.24947 12 ft 8 kts 88°
2026-05-08 08:22 41.80203 12.25029 12 ft 9 kts 87°
2026-05-08 08:23 41.80219 12.25116 12 ft 10 kts 73°
2026-05-08 08:23 41.80241 12.25206 12 ft 11 kts 70°
2026-05-08 08:23 41.80269 12.25307 12 ft 12 kts 70°
2026-05-08 08:23 41.80302 12.25424 12 ft 14 kts 69°
2026-05-08 08:24 41.80338 12.25550 12 ft 15 kts 70°
2026-05-08 08:24 41.80386 12.25728 13 ft 24 kts 68°
2026-05-08 08:24 41.80451 12.25958 12 ft 24 kts 70°
2026-05-08 08:24 41.80491 12.26111 12 ft 12 kts 70°
2026-05-08 08:25 41.80526 12.26235 12 ft 19 kts 69°
2026-05-08 08:25 41.80581 12.26439 11 ft 29 kts 70°
2026-05-08 08:25 41.80655 12.26719 11 ft 32 kts 71°
2026-05-08 08:25 41.80715 12.26928 10 ft 18 kts 68°
2026-05-08 08:26 41.80769 12.27037 9 ft 10 kts 25°
2026-05-08 08:26 41.80827 12.27030 9 ft 7 kts 343°
2026-05-08 08:26 41.80877 12.27007 9 ft 12 kts 340°
2026-05-08 08:26 41.80952 12.26909 9 ft 17 kts 256°
2026-05-08 08:27 41.80949 12.26893 9 ft 0 kts 252°
2026-05-08 08:27 41.80935 12.26841 10 ft 27 kts 249°
2026-05-08 08:27 41.80794 12.26331 11 ft 89 kts 250°
2026-05-08 08:28 41.80510 12.25316 12 ft 143 kts 250°
2026-05-08 08:28 41.80134 12.23949 376 ft 157 kts 248°
2026-05-08 08:28 41.79746 12.22585 826 ft 166 kts 248°
2026-05-08 08:28 41.79376 12.21196 1647 ft 150 kts 252°
2026-05-08 08:29 41.79225 12.19782 1874 ft 178 kts 264°
2026-05-08 08:29 41.79177 12.17742 1076 ft 253 kts 267°
2026-05-08 08:29 41.79141 12.15443 2077 ft 237 kts 267°
2026-05-08 08:29 41.79101 12.13412 3229 ft 214 kts 267°
2026-05-08 08:30 41.79060 12.11456 3906 ft 213 kts 266°
2026-05-08 08:30 41.79017 12.09472 4530 ft 214 kts 267°
2026-05-08 08:30 41.79011 12.05532 5778 ft 212 kts 270°
2026-05-08 08:31 41.79011 12.03555 6312 ft 215 kts 269°
2026-05-08 08:31 41.79006 12.01557 6867 ft 216 kts 270°
2026-05-08 08:31 41.79003 11.99532 7396 ft 219 kts 269°
2026-05-08 08:31 41.78998 11.97439 7729 ft 233 kts 269°
2026-05-08 08:32 41.78991 11.95233 8206 ft 239 kts 270°
2026-05-08 08:32 41.78989 11.93042 8800 ft 239 kts 270°
2026-05-08 08:32 41.78984 11.90813 9391 ft 239 kts 271°
2026-05-08 08:32 41.78981 11.88593 9938 ft 240 kts 271°
2026-05-08 08:33 41.78978 11.86367 10479 ft 242 kts 271°
2026-05-08 08:33 41.78975 11.84120 11002 ft 243 kts 271°
2026-05-08 08:33 41.78965 11.81857 11507 ft 245 kts 271°
2026-05-08 08:33 41.78954 11.79571 11995 ft 247 kts 272°
2026-05-08 08:34 41.78942 11.77265 12487 ft 248 kts 272°
2026-05-08 08:34 41.78929 11.74964 12981 ft 248 kts 272°
2026-05-08 08:34 41.78917 11.72667 13463 ft 248 kts 272°
2026-05-08 08:34 41.78905 11.70369 13929 ft 249 kts 272°
2026-05-08 08:35 41.78892 11.68032 14389 ft 249 kts 273°
2026-05-08 08:35 41.78881 11.65719 14831 ft 249 kts 273°
2026-05-08 08:35 41.78870 11.63407 15261 ft 250 kts 273°
2026-05-08 08:35 41.78859 11.61095 15680 ft 250 kts 273°
2026-05-08 08:36 41.78848 11.58766 16089 ft 250 kts 274°
2026-05-08 08:36 41.78838 11.56432 16487 ft 251 kts 274°
2026-05-08 08:36 41.78897 11.54128 16864 ft 250 kts 278°
2026-05-08 08:36 41.79084 11.51811 17240 ft 250 kts 281°
2026-05-08 08:37 41.79279 11.49490 17616 ft 250 kts 281°
2026-05-08 08:37 41.79470 11.47189 17975 ft 250 kts 281°
2026-05-08 08:37 41.79659 11.44899 18321 ft 250 kts 281°
2026-05-08 08:37 41.79849 11.42562 18662 ft 250 kts 281°
2026-05-08 08:38 41.80035 11.40267 18989 ft 251 kts 281°
2026-05-08 08:38 41.80225 11.37927 19315 ft 251 kts 281°
2026-05-08 08:38 41.80415 11.35615 19627 ft 251 kts 283°
2026-05-08 08:38 41.80931 11.33431 19832 ft 249 kts 300°
2026-05-08 08:39 41.81962 11.31560 20067 ft 249 kts 314°
2026-05-08 08:39 41.83104 11.29843 20458 ft 245 kts 313°
2026-05-08 08:39 41.84209 11.28136 20815 ft 243 kts 312°
2026-05-08 08:39 41.85294 11.26430 21104 ft 243 kts 312°
2026-05-08 08:40 41.86382 11.24700 21377 ft 244 kts 312°
2026-05-08 08:40 41.87476 11.22945 21657 ft 244 kts 312°
2026-05-08 08:40 41.88557 11.21204 21930 ft 244 kts 311°
2026-05-08 08:40 41.89630 11.19467 22196 ft 244 kts 311°
2026-05-08 08:41 41.90713 11.17712 22458 ft 244 kts 312°
2026-05-08 08:41 41.91791 11.15962 22711 ft 244 kts 312°
2026-05-08 08:41 41.92866 11.14215 22956 ft 245 kts 312°
2026-05-08 08:41 41.93956 11.12443 23200 ft 245 kts 312°
2026-05-08 08:42 41.95034 11.10690 23438 ft 245 kts 312°
2026-05-08 08:42 41.96110 11.08941 23669 ft 245 kts 312°
2026-05-08 08:42 41.97201 11.07166 23897 ft 245 kts 312°
2026-05-08 08:42 41.98284 11.05406 24118 ft 245 kts 312°
2026-05-08 08:43 41.99361 11.03655 24333 ft 245 kts 312°
2026-05-08 08:43 42.00457 11.01875 24542 ft 246 kts 312°
2026-05-08 08:43 42.01534 11.00125 24803 ft 243 kts 312°
2026-05-08 08:43 42.02626 10.98352 24896 ft 252 kts 312°
2026-05-08 08:44 42.03777 10.96486 24872 ft 267 kts 311°
2026-05-08 08:44 42.04987 10.94521 24910 ft 281 kts 311°
2026-05-08 08:44 42.06255 10.92462 24947 ft 295 kts 311°
2026-05-08 08:44 42.07592 10.90292 24984 ft 309 kts 311°
2026-05-08 08:45 42.09003 10.88002 25018 ft 322 kts 311°
2026-05-08 08:45 42.10463 10.85633 25048 ft 336 kts 311°
2026-05-08 08:45 42.11957 10.83211 25084 ft 348 kts 310°
2026-05-08 08:45 42.13524 10.80669 25116 ft 361 kts 310°
2026-05-08 08:46 42.15156 10.78025 25150 ft 372 kts 310°
2026-05-08 08:46 42.16828 10.75314 25291 ft 380 kts 310°
2026-05-08 08:46 42.18518 10.72578 25531 ft 385 kts 310°
2026-05-08 08:46 42.20252 10.69771 25831 ft 389 kts 310°
2026-05-08 08:47 42.21967 10.66996 26138 ft 391 kts 310°
2026-05-08 08:47 42.23718 10.64164 26458 ft 393 kts 310°
2026-05-08 08:47 42.25482 10.61312 26774 ft 395 kts 311°
2026-05-08 08:47 42.27232 10.58505 27076 ft 397 kts 312°
2026-05-08 08:48 42.29099 10.55753 27369 ft 398 kts 314°
2026-05-08 08:48 42.31036 10.53048 27659 ft 400 kts 314°
2026-05-08 08:48 42.32949 10.50355 27943 ft 401 kts 314°
2026-05-08 08:48 42.34866 10.47646 28207 ft 403 kts 314°
2026-05-08 08:49 42.36806 10.44900 28471 ft 404 kts 314°
2026-05-08 08:49 42.38732 10.42170 28715 ft 405 kts 314°
2026-05-08 08:49 42.40669 10.39426 28951 ft 407 kts 314°
2026-05-08 08:49 42.42621 10.36660 29179 ft 408 kts 314°
2026-05-08 08:50 42.44582 10.33880 29414 ft 409 kts 314°
2026-05-08 08:50 42.46545 10.31100 29660 ft 409 kts 314°
2026-05-08 08:50 42.48508 10.28321 29926 ft 409 kts 314°
2026-05-08 08:50 42.50457 10.25562 30196 ft 409 kts 314°
2026-05-08 08:51 42.52408 10.22801 30467 ft 408 kts 314°
2026-05-08 08:51 42.54382 10.20009 30739 ft 407 kts 314°
2026-05-08 08:51 42.56325 10.17261 30998 ft 406 kts 314°
2026-05-08 08:51 42.58280 10.14497 31260 ft 406 kts 314°
2026-05-08 08:52 42.60220 10.11756 31514 ft 405 kts 314°
2026-05-08 08:52 42.62162 10.09013 31765 ft 404 kts 314°
2026-05-08 08:52 42.64101 10.06275 32006 ft 403 kts 314°
2026-05-08 08:52 42.66028 10.03555 32249 ft 402 kts 314°
2026-05-08 08:53 42.67960 10.00829 32482 ft 401 kts 314°
2026-05-08 08:53 42.69899 9.98092 32714 ft 400 kts 314°
2026-05-08 08:53 42.71807 9.95401 32935 ft 400 kts 314°
2026-05-08 08:53 42.73746 9.92669 33159 ft 399 kts 314°
2026-05-08 08:54 42.75654 9.89968 33371 ft 398 kts 313°
2026-05-08 08:54 42.77427 9.87079 33579 ft 398 kts 308°
2026-05-08 08:54 42.78970 9.83990 33779 ft 398 kts 303°
2026-05-08 08:54 42.80296 9.80701 33951 ft 395 kts 298°
2026-05-08 08:55 42.82360 9.73835 33970 ft 395 kts 290°
2026-05-08 08:55 42.83511 9.66460 33978 ft 401 kts 283°
2026-05-08 08:56 42.84427 9.58995 33997 ft 402 kts 283°
2026-05-08 08:56 42.85347 9.51472 33996 ft 402 kts 283°
2026-05-08 08:57 42.86269 9.43955 33996 ft 402 kts 283°
2026-05-08 08:57 42.87189 9.36494 33995 ft 402 kts 284°
2026-05-08 08:58 42.88116 9.29013 34005 ft 403 kts 283°
2026-05-08 08:58 42.89044 9.21559 34014 ft 402 kts 283°
2026-05-08 08:59 42.89983 9.14066 34022 ft 402 kts 283°
2026-05-08 08:59 42.90921 9.06602 34026 ft 400 kts 283°
2026-05-08 09:00 42.91857 8.99203 34025 ft 397 kts 284°
2026-05-08 09:00 42.92791 8.91856 34024 ft 394 kts 284°
2026-05-08 09:01 42.93730 8.84517 34023 ft 392 kts 284°
2026-05-08 09:01 42.94665 8.77231 34023 ft 392 kts 284°
2026-05-08 09:02 42.95610 8.69915 34023 ft 392 kts 283°
2026-05-08 09:02 42.96558 8.62595 34022 ft 392 kts 283°
2026-05-08 09:03 42.97510 8.55289 34021 ft 392 kts 283°
2026-05-08 09:03 42.98466 8.47986 34021 ft 392 kts 283°
2026-05-08 09:04 42.99429 8.40670 34019 ft 392 kts 283°
2026-05-08 09:04 43.00393 8.33381 34015 ft 392 kts 283°
2026-05-08 09:05 43.01363 8.26081 34019 ft 392 kts 283°
2026-05-08 09:05 43.02336 8.18788 34017 ft 392 kts 283°
2026-05-08 09:06 43.03313 8.11504 34017 ft 393 kts 283°
2026-05-08 09:06 43.04300 8.04180 34016 ft 392 kts 283°
2026-05-08 09:07 43.05291 7.96855 34015 ft 393 kts 283°
2026-05-08 09:07 43.06280 7.89580 34016 ft 392 kts 283°
2026-05-08 09:08 43.07280 7.82268 34015 ft 392 kts 283°
2026-05-08 09:08 43.08280 7.74978 34014 ft 393 kts 283°
2026-05-08 09:09 43.09287 7.67679 34014 ft 392 kts 283°
2026-05-08 09:09 43.10298 7.60374 34018 ft 392 kts 283°
2026-05-08 09:10 43.11207 7.53017 34019 ft 393 kts 281°
2026-05-08 09:10 43.12041 7.45694 34019 ft 393 kts 281°
2026-05-08 09:11 43.12875 7.38300 34017 ft 393 kts 281°
2026-05-08 09:11 43.13706 7.30953 34026 ft 393 kts 281°
2026-05-08 09:12 43.14533 7.23677 34024 ft 393 kts 281°
2026-05-08 09:12 43.15375 7.16300 34025 ft 392 kts 281°
2026-05-08 09:13 43.16219 7.08949 34023 ft 387 kts 282°
2026-05-08 09:13 43.17051 7.01749 34023 ft 382 kts 282°
2026-05-08 09:14 43.17873 6.94665 33834 ft 374 kts 283°
2026-05-08 09:14 43.18282 6.91170 33373 ft 371 kts 283°
2026-05-08 09:14 43.18689 6.87705 32914 ft 366 kts 283°
2026-05-08 09:15 43.19089 6.84280 32461 ft 361 kts 283°
2026-05-08 09:15 43.19482 6.80952 32024 ft 357 kts 283°
2026-05-08 09:15 43.19878 6.77593 31584 ft 355 kts 283°
2026-05-08 09:15 43.20266 6.74301 31158 ft 354 kts 283°
2026-05-08 09:16 43.20662 6.70968 30731 ft 355 kts 283°
2026-05-08 09:16 43.21054 6.67669 30310 ft 357 kts 283°
2026-05-08 09:16 43.21453 6.64303 29879 ft 360 kts 283°
2026-05-08 09:16 43.21773 6.61047 29466 ft 364 kts 280°
2026-05-08 09:17 43.21983 6.57601 29129 ft 367 kts 278°
2026-05-08 09:17 43.22070 6.54127 28639 ft 371 kts 275°
2026-05-08 09:17 43.22106 6.50622 28151 ft 371 kts 276°
2026-05-08 09:17 43.22149 6.47083 27653 ft 370 kts 276°
2026-05-08 09:18 43.22194 6.43640 27169 ft 367 kts 276°
2026-05-08 09:18 43.22241 6.40320 26837 ft 361 kts 276°
2026-05-08 09:18 43.22300 6.36888 26350 ft 361 kts 276°
2026-05-08 09:18 43.22348 6.33533 25870 ft 359 kts 275°
2026-05-08 09:19 43.22394 6.30177 25397 ft 358 kts 275°
2026-05-08 09:19 43.22437 6.26817 24922 ft 355 kts 275°
2026-05-08 09:19 43.22481 6.23464 24445 ft 353 kts 275°
2026-05-08 09:19 43.22522 6.20330 23997 ft 351 kts 275°
2026-05-08 09:20 43.22565 6.17058 23528 ft 348 kts 275°
2026-05-08 09:20 43.22609 6.13732 23087 ft 345 kts 275°
2026-05-08 09:20 43.22646 6.10534 22701 ft 343 kts 275°
2026-05-08 09:20 43.22674 6.07256 22218 ft 342 kts 275°
2026-05-08 09:21 43.22700 6.04018 21741 ft 341 kts 275°
2026-05-08 09:21 43.22768 6.01747 21442 ft 337 kts 278°
2026-05-08 09:22 43.24421 5.83967 18890 ft 326 kts 281°
2026-05-08 09:23 43.24716 5.80922 18436 ft 324 kts 281°
2026-05-08 09:23 43.25015 5.77842 17977 ft 322 kts 281°
2026-05-08 09:23 43.25308 5.74820 17527 ft 320 kts 281°
2026-05-08 09:23 43.25596 5.71843 17083 ft 319 kts 281°
2026-05-08 09:24 43.25887 5.68855 16638 ft 317 kts 281°
2026-05-08 09:24 43.26173 5.65923 16202 ft 315 kts 281°
2026-05-08 09:24 43.26460 5.62987 15767 ft 313 kts 281°
2026-05-08 09:24 43.26743 5.60100 15361 ft 311 kts 281°
2026-05-08 09:25 43.27141 5.57287 15027 ft 306 kts 290°
2026-05-08 09:25 43.27954 5.54773 14646 ft 303 kts 304°
2026-05-08 09:25 43.29247 5.52763 14288 ft 301 kts 315°
2026-05-08 09:25 43.30536 5.50861 13935 ft 300 kts 312°
2026-05-08 09:26 43.31934 5.48644 13526 ft 300 kts 311°
2026-05-08 09:26 43.33244 5.46465 13131 ft 299 kts 310°
2026-05-08 09:26 43.34534 5.44253 12733 ft 296 kts 309°
2026-05-08 09:26 43.35794 5.42054 12336 ft 292 kts 309°
2026-05-08 09:27 43.37026 5.39881 11946 ft 289 kts 309°
2026-05-08 09:27 43.38181 5.37832 11578 ft 286 kts 309°
2026-05-08 09:27 43.39310 5.35822 11218 ft 283 kts 309°